Regional Weather Roundup
Issued by NWS

Home | Current Version | Previous Version | Text Only | Print | Product List | Glossary On
Versions: 1 2 3 4 5 6 7 8 9 10 11 12 13 14 15 16 17 18 19 20 21 22 23 24 25 26 27 28 29 30 31 32 33 34 35 36 37 38 39 40 41 42 43 44 45 46 47 48 49 50
000
ASUS44 KLIX 132310
RWRLA
LOUISIANA WEATHER ROUNDUP
NATIONAL WEATHER SERVICE NEW ORLEANS LA
500 PM CST SAT FEB 13 2016

NOTE: "FAIR" INDICATES FEW OR NO CLOUDS BELOW 12,000 FEET WITH NO
      SIGNIFICANT WEATHER AND/OR OBSTRUCTIONS TO VISIBILITY.
      SKY/WX - SKY CONDITION AND SIGNIFICANT WEATHER.
      TMP - AIR TEMPERATURE.    DP   - DEWPOINT TEMPERATURE.
      RH  - RELATIVE HUMIDITY.  PRES - PRESSURE.
      HX  - HEAT INDEX.         WCI  - WIND CHILL INDEX.

*  THESE STATIONS ARE NOT NWS OR FAA STATIONS AND ARE NOT UNDER
   NWS QUALITY CONTROL.

LAZ040-048-061>063-065-066-069-140000-
SOUTHEAST LOUISIANA

CITY           SKY/WX    TMP DP  RH WIND       PRES   REMARKS
N.O. AUDUBON   NOT AVBL
N.O. INTL ARPT PTCLDY    61  31  32 N6        30.33F
N.O. LAKEFRONT CLEAR     56  38  50 NW6       30.34F
N.O. DOWNTOWN* NOT AVBL
RESERVE*       FAIR      62  34  34 NE5       30.33S
SLIDELL        CLEAR     59  37  44 S5        30.33R
BATON ROUGE    CLEAR     63  34  33 E5        30.32S
BOOTHVILLE     PTCLDY    54  40  59 NE6       30.34F
BELLE CHASSE   PTCLDY    60  34  37 E6        30.33S
BOGALUSA*        N/A     60  28  29 NE5       30.35S
GALLIANO*      CLEAR     60  39  46 E6        30.33S
NEW ROADS*     FAIR      62  35  37 CALM      30.31F
GONZALES*      FAIR      62  38  42 S7        30.31F
HAMMOND*       CLEAR     63  30  29 NE3       30.32F
HOUMA*         NOT AVBL
PORT FOURCHON* CLEAR     55  39  54 E12       30.34S

$$

LAZ041-044-053-054-140000-
SOUTHWEST LOUISIANA

CITY           SKY/WX    TMP DP  RH WIND       PRES   REMARKS
LAKE CHARLES   CLOUDY    62  41  46 S7        30.32R
LAFAYETTE      SUNNY     65  37  35 CALM      30.32S
PATTERSON      CLEAR     63  37  39 E6        30.33R
SALT POINT       N/A     60  44  55 S6        30.32R
NEW IBERIA     SUNNY     63  36  36 S6        30.33S
CHENAULT AIRPK SUNNY     63  39  42 E6        30.32S

$$

LAZ027-028-140000-
CENTRAL LOUISIANA

CITY           SKY/WX    TMP DP  RH WIND       PRES   REMARKS
FORT POLK      MOSUNNY   61  37  41 NE7       30.31R
ALEXANDRIA INT MOSUNNY   56  33  42 E8        30.32S
ALEXANDRIA     MOSUNNY   58  29  33 VRB5      30.34F

$$

LAZ001-002-140000-
NORTHWEST LOUISIANA

CITY           SKY/WX    TMP DP  RH WIND       PRES   REMARKS
SHREVEPORT     MOSUNNY   58  32  37 SE9       30.30S
BARKSDALE AFB  SUNNY     56  32  39 SE12      30.30F
DTN SHREVEPORT SUNNY     57  30  35 E8        30.30F

$$

LAZ014-016-140000-
NORTHEAST LOUISIANA

CITY           SKY/WX    TMP DP  RH WIND       PRES   REMARKS
MONROE         CLEAR     49  19  30 E7        30.38F
TALLULAH       CLEAR     51  19  28 N10       30.38F

$$




USA.gov is the U.S. government's official web portal to all federal, state and local government web resources and services.